Regional Weather Roundup
Issued by NWS Newport/Morehead, NC

Current Version | Previous Version | Graphics & Text | Print | Product List | Glossary Off
Versions: 1 2 3 4 5 6 7 8 9 10 11 12 13 14 15 16 17 18 19 20 21 22 23 24 25 26 27 28 29 30 31 32 33 34 35 36 37 38 39 40 41 42 43 44 45 46 47 48 49 50

874
ASUS42 KMHX 251026
RWRMHX
WEATHER ROUNDUP FOR EASTERN NORTH CAROLINA
NATIONAL WEATHER SERVICE NEWPORT/MOREHEAD CITY NC
500 AM EST SUN FEB 25 2018

NOTE: "FAIR" INDICATES FEW OR NO CLOUDS BELOW 12,000 FEET
WITH NO SIGNIFICANT WEATHER AND/OR OBSTRUCTIONS TO VISIBILITY

NCZ015>017-031-032-045>047-102-103-251100-
NORTH COAST

CITY           SKY/WX    TMP DP  RH WIND       PRES   REMARKS
EDENTON        FAIR      65  63  91 SW9       30.07S
ELIZABETH CITY FAIR      64  63  96 S12       30.06S
KITTY HAWK     FAIR     N/A N/A N/A SW7       30.07S
MANTEO         FAIR      63  61  94 SW12      30.08S

$$

NCZ045>047-081-094-103-104-251100-
CENTRAL COAST

CITY           SKY/WX    TMP DP  RH WIND       PRES   REMARKS
FRISCO         FAIR      65  64  97 SW12      30.10F

$$

NCZ095-097-098-100-101-251100-
SOUTHERN COAST

CITY           SKY/WX    TMP DP  RH WIND       PRES   REMARKS
BEAUFORT       FAIR      63  61  93 SW12      30.12S
CEDAR ISLAND   NOT AVBL
JACKSONVILLE   FAIR      65  63  93 SW7       30.09F
PINEY ISLAND   NOT AVBL
WILMINGTON     FAIR      66  63  90 S8        30.10S


$$

NCZ011>013-027>030-043-044-078>080-089-090>093-098-251100-
COASTAL PLAIN

CITY           SKY/WX    TMP DP  RH WIND       PRES   REMARKS
AHOSKIE        FAIR      63  61  93 S6        30.04S
CLINTON        MOCLDY    64  64 100 S6        30.08F
ELIZABETHTOWN  NOT AVBL
GOLDSBORO      FAIR      65  62  91 SW8G17    30.05F
GREENVILLE     FAIR      64  63  94 SW9       30.08S
HAVELOCK       NOT AVBL
KENANSVILLE    FAIR      64  63  94 S3        30.08F
KINSTON        FAIR      64  63  94 S12       30.08F
NEW BERN       FAIR      63  62  97 SW7       30.10F
RICHLANDS      FAIR      62  61  96 S8        30.10S
ROCKY MOUNT    MOCLDY    65  61  87 S12       30.05F
WASHINGTON     FAIR      64  62  94 SW8       30.08F
WHITEVILLE     FAIR      64  63  97 S6        30.09S

$$

AMZ130-135-150-152-154-156-158-170-250-252-270-ANZ085-086-088-633-658-670-251100-
MARINE OBSERVATIONS

STATION/POSITION TIME  TEMP    WIND        PRES    WAVE   SWELL
                       AIR SEA DIR/SP/G            HT/PER HT/PER
                 (UTC) (F)     (DEG/KT/KT) (MB)    (FT/S) (FT/S)
CHESAPEAKE LIGHT NOT AVBL
64 E VA BEACH    0950   54 50  210/ 14/ 14 1018.3    4/10   2/10
DUCK             1000   65 46  210/ 15/ 18 1017.5
2 E DUCK         1000      47                N/A     2/ 9
OREGON INLET     1000          210/ 11/ 12   N/A
13E OREGON INLT  0948      48                N/A     3/ 8   2/ 8
HATTERAS CG      1000   64 62  230/  9/ 13 1019.2
DIAMOND BUOY     1010   72 74  240/ 17/ 21 1019.7
CAPE LOOKOUT     1000          210/ 11/ 13 1020.2
BEAUFORT LAB     1000   64 59  210/  8/ 10 1019.9
30 SE NEW RVR IN 0908   71 70  220/ 12/ 16 1019.9
30 SE NEW RVR IN 1000      70                N/A     5/ 9   2/11
27 SE WRIGHTSVLE 0908   70 69  220/ 16/ 21 1020.0
5 SE WRIGHTSVLE  1008   61 57  220/  8/ 12 1019.4
225 S CAPE HAT   0950   72 72  230/ 10/ 12 1023.1    5/ 9   5/ 9
41 SE CHARLESTON 1010   71 70  220/ 10/ 12 1020.2

$$




USA.gov is the U.S. government's official web portal to all federal, state and local government web resources and services.